Tracking 27112 objects as of 26-Mar-2023
HD Live streaming from Space Station
objects crossing your sky now

STARLINK-1933

Track STARLINK-1933 now!
10-day predictions
STARLINK-1933 is classified as:


NORAD ID: 46791
Int'l Code: 2020-074BE
Perigee: 553.1 km
Apogee: 555.7 km
Inclination: 53.1 °
Period: 95.6 minutes
Semi major axis: 6925 km
RCS: Unknown
Launch date: October 24, 2020
Source: United States (US)
Launch site: AIR FORCE EASTERN TEST RANGE (AFETR)
Your satellite tracking list
Your tracking list is empty




NASA's NSSDC Master Catalog

Two Line Element Set (TLE):
1 46791U 20074BE  23085.12696026 -.00002570  00000-0 -15372-3 0  9997
2 46791  53.0515 127.9635 0001818  97.1047 263.0149 15.06384462133637
Source of the keplerian elements: AFSPC